Вернуться в каталог

ONEWEB-0243

АктивенСвязьPO
NORAD 48774·PAYLOAD·🇬🇧 United Kingdom

Запущен May 28, 2021 с Vostochny Cosmodrome

Loading…

Ближайшие Пролёты (ближайшие 24 часа)

TLE

СвежийSource: CelesTrak SupGP

Эпоха: Sep 14, 2026, 17:51 UTC

1 48774C 21045H   26257.74389306  .00001471  00000+0  39113-2 0  2572
2 48774  87.8973 241.3590 0002483  79.2420 315.8179 13.15542307    15

Отслеживайте ONEWEB-0243 в реальном времени с AllMySat

Download on the App Store